, FL

(GMT )
Crestview

Weather History for KEGI - May, 2013

Change the Weather History Date:

Sunday, May 5, 2013

  Actual Average Record
Temperature  
Mean Temperature 58 °F -  
Max Temperature 75 °F - - ()
Min Temperature 41 °F - - ()
Degree Days  
Heating Degree Days 7    
Growing Degree Days 8 (Base 50)    
Moisture  
Dew Point 44 °F    
Average Humidity 58    
Maximum Humidity 95    
Minimum Humidity 25    
Precipitation  
Precipitation 0.00 in - - ()
Sea Level Pressure  
Sea Level Pressure 29.88 in    
Wind  
Wind Speed 7 mph (WSW)    
Max Wind Speed 23 mph    
Max Gust Speed 31 mph    
Visibility 10 miles    
Events Rain    
T = Trace of Precipitation, MM = Missing Value Source: NWS Daily Summary

Daily Weather History Graph

Daily Weather History Graph

Search for Another Location

Airport or City:

Trip Planner

Search our weather history database for the weather conditions in past years. The results will help you decide how hot, cold, wet, or windy it might be!

Date:

Astronomy

May. 05, 2013 Rise Set
Actual Time 5:58 AM CDT 7:27 PM CDT
Civil Twilight 5:32 AM CDT 7:53 PM CDT
Nautical Twilight 5:01 AM CDT 8:24 PM CDT
Astronomical Twilight 4:29 AM CDT 8:56 PM CDT
Moon 3:11 AM CDT (5/5) 3:41 PM CDT (5/5)
Length of Visible Light 14h 20m
Length of Day
13h 28m
Waning Crescent, 18% of the Moon is Illuminated
May 5
Waning Crescent
May 9
New
May 17
First Quarter
May 24
Full
May 31
Last Quarter

Hourly Weather History & Observations

Time (CDT) Temp. Dew Point Humidity Pressure Visibility Wind Dir Wind Speed Gust Speed Precip Events Conditions
12:58 AM 46.2 °F 43.5 °F 90% 29.92 in 10.0 mi Calm Calm - N/A   Clear
1:58 AM 45.3 °F 43.0 °F 92% 29.90 in 10.0 mi Calm Calm - N/A   Clear
2:58 AM 44.4 °F 41.5 °F 90% 29.90 in 10.0 mi Calm Calm - N/A   Clear
3:58 AM 43.2 °F 41.5 °F 94% 29.90 in 10.0 mi SSE 1.2 mph - N/A   Clear
4:58 AM 41.9 °F 40.6 °F 95% 29.89 in 10.0 mi Calm Calm - N/A   Clear
5:58 AM 42.3 °F 41.0 °F 95% 29.90 in 10.0 mi Calm Calm - N/A   Clear
6:58 AM 46.6 °F 44.8 °F 93% 29.90 in 10.0 mi Calm Calm - N/A   Clear
7:58 AM 58.5 °F 43.7 °F 58% 29.90 in 10.0 mi South 6.9 mph - N/A   Clear
8:58 AM 65.8 °F 49.5 °F 55% 29.89 in 10.0 mi South 5.8 mph - N/A   Clear
9:58 AM 68.5 °F 54.9 °F 62% 29.88 in 10.0 mi SW 12.7 mph - N/A   Partly Cloudy
10:03 AM 68.0 °F 55.4 °F 64% 29.87 in 10.0 mi SW 12.7 mph - N/A Rain Light Rain
10:13 AM 66.2 °F 55.4 °F 68% 29.87 in 10.0 mi SW 10.4 mph - N/A   Scattered Clouds
10:58 AM 70.9 °F 52.5 °F 52% 29.86 in 10.0 mi SW 17.3 mph 25.3 mph 0.00 in   Partly Cloudy
11:46 AM 73.4 °F 48.2 °F 41% 29.84 in 10.0 mi SW 18.4 mph 31.1 mph N/A   Light Drizzle
11:47 AM 73.4 °F 48.2 °F 41% 29.84 in 10.0 mi WSW 18.4 mph 31.1 mph N/A   Partly Cloudy
11:58 AM 74.7 °F 47.7 °F 38% 29.85 in 10.0 mi WSW 23.0 mph 28.8 mph 0.00 in   Scattered Clouds
12:58 PM 74.3 °F 41.5 °F 31% 29.83 in 10.0 mi WSW 23.0 mph 31.1 mph N/A   Clear
1:46 PM 75.2 °F 37.4 °F 25% 29.81 in 10.0 mi West 20.7 mph 29.9 mph N/A   Clear
1:58 PM 74.8 °F 37.0 °F 25% 29.82 in 10.0 mi West 20.7 mph 28.8 mph N/A   Clear
2:55 PM 75.2 °F 40.5 °F 29% 29.81 in 10.0 mi WSW 16.1 mph 23.0 mph N/A   Partly Cloudy
3:55 PM 72.5 °F 41.0 °F 32% 29.80 in 10.0 mi West 17.3 mph 26.5 mph N/A   Partly Cloudy
4:58 PM 70.0 °F 43.2 °F 38% 29.84 in 10.0 mi WNW 17.3 mph 26.5 mph N/A   Clear
5:58 PM 66.2 °F 39.7 °F 38% 29.86 in 10.0 mi WNW 15.0 mph 25.3 mph N/A   Clear
6:58 PM 62.6 °F 37.8 °F 40% 29.89 in 10.0 mi NW 10.4 mph - N/A   Clear
8:58 PM 56.1 °F 38.5 °F 52% 29.95 in 10.0 mi WNW 8.1 mph - N/A   Clear
9:55 PM 53.2 °F 37.8 °F 56% 29.97 in 10.0 mi WNW 5.8 mph - N/A   Clear
9:58 PM 53.2 °F 37.8 °F 56% 29.97 in 10.0 mi WNW 5.8 mph - N/A   Clear
10:58 PM 51.6 °F 39.0 °F 62% 29.98 in 10.0 mi WNW 8.1 mph - N/A   Clear
11:58 PM 50.5 °F 39.7 °F 66% 29.98 in 10.0 mi WNW 5.8 mph - N/A   Clear